Location: B
(0.0000°N, 0.0000°E)
Time: 03:54:38
(UTC+01:00)

Daily predictions for brighter satellites

Satellite Brightness Start Highest point End
(mag) Time Altitude Azimuth Time Altitude Azimuth Time Altitude Azimuth
Ariane 42L Rocket 4.5 04:53:13 60° N 04:53:53 61° NNE 05:27:09 10° E
ARIANE 5 DEB (SYLDA) 4.3 04:57:23 59° ESE 04:57:23 59° ESE 05:07:51 10° E
ARIANE 5 R/B 4.2 04:57:24 40° SSE 04:57:24 40° SSE 05:04:48 10° E
ARIANE 5 R/B 2.9 05:01:54 47° SSE 05:01:54 47° SSE 05:13:28 10° ESE
Cosmos 1727 Rocket 4.4 05:04:09 53° S 05:04:09 53° S 05:08:48 10° S
ARIANE 44LP R/B 4.5 05:05:28 65° WNW 05:06:38 76° N 05:10:48 10° E
Mugunghwa Rocket 4.0 05:12:06 82° W 05:12:26 88° NNW 05:19:52 10° ENE
Cosmos 2322 Rocket 2.9 05:11:17 10° S 05:16:44 53° ESE 05:22:13 10° NNE
Ariane H10 3.7 05:18:53 25° NE 05:18:53 25° NE 05:21:09 10° ENE
Ariane H10 3.3 05:18:36 57° SW 05:19:46 68° S 05:42:28 10° E
Cosmos 1934 Rocket 3.8 05:14:16 10° S 05:20:33 82° W 05:26:52 10° N
Milstar 3 Cent rocket 4.0 05:23:19 18° N 05:23:19 18° N 05:25:54 10° NNE
EPKM 4.4 05:21:28 41° WNW 05:25:27 81° NNE 05:29:27 10° ESE
ARIANE DEB (SPELDA) 3.0 05:26:19 53° SE 05:26:19 53° SE 05:32:14 10° E
ATLAS 3B R/B 4.2 05:28:51 18° SSW 05:28:51 18° SSW 05:31:14 10° SSW
Ariane H10 3.6 05:31:16 29° SE 05:31:16 29° SE 05:32:28 10° ESE
Cosmos 405 Rocket 4.3 05:27:02 10° SSE 05:30:48 37° E 05:34:32 10° NNE
ARIANE 5 R/B 4.4 05:24:25 34° W 05:33:08 84° N 05:37:44 10° E
NOSS 3-2 (A) 4.4 05:32:00 44° W 05:33:11 46° WSW 05:41:00 10° S
Okean-O 4.1 05:29:15 10° NE 05:33:21 37° ESE 05:37:26 10° S
MINOTAUR IV R/B 4.5 05:37:35 67° NNW 05:38:11 87° WSW 05:42:47 10° SSE
ISS -2.8 05:39:44 46° ESE 05:39:44 46° ESE 05:42:45 10° NE
CZ-3C R/B 1.8 05:43:30 26° ENE 05:43:30 26° ENE 05:44:42 10° ENE
BLOCK DM-SL R/B 3.5 05:42:11 35° W 05:45:38 89° S 05:49:57 10° E
Atlas Centaur 2 1.3 05:46:18 58° WSW 05:47:09 83° NNW 05:51:06 10° NE
Ariane H10+ 3.1 05:48:46 17° NE 05:48:46 17° NE 05:49:22 10° ENE
USA 234 4.2 05:43:27 10° NE 05:49:39 47° SE 05:55:52 10° SSW
Ariane H10 3.9 05:48:41 36° WSW 05:50:51 69° S 06:13:10 10° E
MSX 4.5 05:49:17 10° NNE 05:54:55 58° ESE 06:00:35 10° S
Gbstr 26 Del rocket 4.3 05:50:40 22° NW 05:55:38 87° SW 06:03:43 10° SE
Cosmos 1869 Rocket 3.7 05:52:05 10° N 05:56:31 77° E 06:01:00 10° S
SL-16 R/B 2.4 05:56:45 10° SSW 06:02:07 45° WNW 06:07:30 10° N
Cosmos 1825 4.0 06:08:34 17° SW 06:08:34 17° SW 06:09:50 10° SSW
Meteor 1-26 Rocket 4.2 06:01:40 10° S 06:07:34 75° W 06:13:27 10° N
ARIANE 5 DEB (SYLDA) 2.3 06:11:10 32° SE 06:11:10 32° SE 06:12:18 10° E
Cosmos 1441 Rocket 3.5 06:09:13 10° SSW 06:12:58 43° W 06:16:44 10° NNW
CZ-2C R/B 2.4 06:07:49 10° N 06:13:00 79° WNW 06:18:10 10° SSW
Cosmos 2242 Rocket 3.8 06:10:18 10° SSW 06:14:39 47° W 06:19:01 10° NNW
Centaur AC-125 4.2 06:13:14 19° WSW 06:16:43 70° NNW 06:40:43 10° ENE
Cosmos 1782 4.1 06:13:24 10° SSE 06:17:15 44° E 06:21:06 10° NNE
Cosmos 1862 3.2 06:14:14 10° NNW 06:18:12 66° W 06:22:13 10° S
Meteor 1-28 Rocket 3.5 06:18:01 10° S 06:21:40 44° W 06:25:17 10° NNW
Aureole 1 Rocket 3.2 06:16:29 10° NNW 06:21:47 88° E 06:25:47 10° SSE
Ariane H10+ 3.1 06:16:39 17° W 06:23:54 71° N 06:27:24 10° ENE
Cosmos 2227 Rocket 2.8 06:21:04 10° NW 06:26:10 36° WSW 06:31:18 10° S
Milstar 3 3.3 06:19:31 15° WNW 06:28:18 65° SSW 06:35:03 10° SE
SJ-12 3.8 06:29:04 10° N 06:33:09 71° WNW 06:37:14 10° SSW
Cosmos 2100 Rocket 3.9 06:27:32 10° S 06:33:45 76° W 06:39:53 10° N
BLOCK DM-SL R/B 3.7 06:27:07 12° W 06:34:43 84° S 06:38:26 10° E
CZ-2C R/B 3.8 06:30:06 10° SSE 06:34:53 87° WSW 06:39:36 10° NNW
CZ-4 R/B 4.4 06:33:46 10° NE 06:36:46 21° ESE 06:39:48 10° SSE
Cosmos 2297 Rocket 3.0 06:35:01 10° NW 06:39:54 31° WSW 06:44:49 10° SSW
USA 215 3.3 06:33:39 10° SSE 06:40:11 70° SW 06:46:42 10° NW
CZ-3B Rocket 3.7 06:39:14 10° WSW 06:42:24 16° SSW 06:44:45 10° SSE
IDEFIX/ARIANE 42P 3.7 06:38:58 10° NNW 06:42:47 21° WNW 06:46:36 10° SW
Cosmos 158 Rocket 4.0 06:42:06 10° NNW 06:47:18 85° WSW 06:52:40 10° S
CENTAUR R/B 3.5 06:40:46 10° NW 06:48:44 45° WSW 06:56:22 10° S
Cosmos 405 3.0 06:45:20 10° N 06:48:54 89° E 06:52:28 10° S
Cosmos 2237 4.2 06:43:34 10° SSW 06:49:17 78° WNW 06:54:58 10° NNE
Cosmos 1606 3.1 06:46:08 10° SSW 06:49:46 40° W 06:53:23 10° NNW
Meteor 2-6 Rocket 4.4 06:44:15 10° S 06:50:01 86° E 06:55:35 10° N
